Regional Weather Roundup
Issued by NWS

Home | Current Version | Previous Version | Text Only | Print | Product List | Glossary On
Versions: 1 2 3 4 5 6 7 8 9 10 11 12 13 14 15 16 17 18 19 20 21 22 23 24 25 26 27 28 29 30 31 32 33 34 35 36 37 38 39 40 41 42 43 44 45 46 47 48 49 50
000
ASUS45 KPSR 040000
RWRAZ

PRELIMINARY ARIZONA REGIONAL HOURLY WEATHER ROUNDUP
NATIONAL WEATHER SERVICE PHOENIX AZ
500 PM MST TUE MAR 03 2015

NOTE: FAIR INDICATES FEW OR NO CLOUDS BELOW 12,000 FEET WITH NO
SIGNIFICANT WEATHER AND/OR OBSTRUCTIONS TO VISIBILITY.

AZZ001>003-036-040100-
NORTHWEST ARIZONA

CITY           SKY/WX    TMP DP  RH WIND       PRES   REMARKS
KINGMAN        PTSUNNY   50  31  48 SW5       29.86S
6HR MIN TEMP:  47; 6HR MAX TEMP:  52;

$$

AZZ004>008-015-016-018-040100-
NORTH CENTRAL ARIZONA

CITY           SKY/WX    TMP DP  RH WIND       PRES   REMARKS
GRAND CANYON   PTSUNNY   33  26  75 SW7       29.85S WCI  27
6HR MIN TEMP:  29; 6HR MAX TEMP:  34; 6HR PCP:  0.16;

PRESCOTT       PTSUNNY   44  28  53 SW12      29.86S
6HR MIN TEMP:  42; 6HR MAX TEMP:  48;

FLAGSTAFF      NOT AVBL
PAYSON         LGT RAIN  43  36  75 NW7       29.89R
PAGE           PTSUNNY   47  24  40 W10G18    29.80S
6HR MIN TEMP:  43; 6HR MAX TEMP:  49; 6HR PCP: TRACE;

$$

AZZ009>014-017-040100-
NORTHEAST ARIZONA

CITY           SKY/WX    TMP DP  RH WIND       PRES   REMARKS
WINSLOW        NOT AVBL
SAINT JOHNS    MOSUNNY   48  20  32 W16G25    29.82R
6HR MIN TEMP:  42; 6HR MAX TEMP:  50;

WINDOW ROCK    PTSUNNY   41  26  55 W16G22    29.82S
6HR MIN TEMP:  38; 6HR MAX TEMP:  43;

$$

AZZ023-040100-
GREATER PHOENIX AREA

CITY           SKY/WX    TMP DP  RH WIND       PRES   REMARKS
PHOENIX        PTSUNNY   60  42  51 SW9       29.83S
6HR MIN TEMP:  59; 6HR MAX TEMP:  65; 6HR PCP:  0.07;

GLENDALE       PTSUNNY   63  43  48 SE10G17   29.85S
DEER VALLEY    MOSUNNY   61  36  39 W7        29.83S
6HR MIN TEMP:  56; 6HR MAX TEMP:  63;

SCOTTSDALE     CLOUDY    60  42  51 SW8       29.85S
6HR MIN TEMP:  58; 6HR MAX TEMP:  63; 6HR PCP: TRACE;

MESA-FALCON    PTSUNNY   59  39  47 SW7       29.84S
MESA-GATEWAY   PTSUNNY   57  46  67 CALM      29.87
CHANDLER       PTSUNNY   61  45  55 W9        29.85S
$$

AZZ027-028-040100-
SOUTHWEST MARICOPA COUNTY AND PINAL COUNTY

CITY           SKY/WX    TMP DP  RH WIND       PRES   REMARKS
CASA GRANDE    PTSUNNY   61  39  44 N5        29.85S
6HR MIN TEMP:  48; 6HR MAX TEMP:  61;

$$

AZZ503-504-507>509-040100-
SOUTHEAST ARIZONA

CITY           SKY/WX    TMP DP  RH WIND       PRES   REMARKS
TUCSON         CLOUDY    63  36  36 N10       29.84F
6HR MIN TEMP:  56; 6HR MAX TEMP:  63;

DAVIS-MONTHAN  SUNNY     59  37  43 NW13      29.82S
6HR MIN TEMP:  54; 6HR MAX TEMP:  61;

RYAN FIELD       N/A     61  37  41 N8G16     29.85S
NOGALES        SUNNY     60  27  28 SW12      29.83S
6HR MIN TEMP:  55; 6HR MAX TEMP:  63;

SIERRA VISTA   MOSUNNY   57  27  30 SW12      29.83S
DOUGLAS        SUNNY     61  28  28 SW16      29.81F
6HR MIN TEMP:  52; 6HR MAX TEMP:  64;

SAFFORD        SUNNY     61  31  32 NW12      29.79F
6HR MIN TEMP:  53; 6HR MAX TEMP:  63;

$$

AZZ020-021-025-026-031-040100-
SOUTHWEST ARIZONA

CITY           SKY/WX    TMP DP  RH WIND       PRES   REMARKS
YUMA           MOSUNNY   66  37  34 W9        29.85F
6HR MIN TEMP:  61; 6HR MAX TEMP:  67;

$$

CAZ031-033-041-043-047-048-061-040100-
SOUTHERN CALIFORNIA

CITY           SKY/WX    TMP DP  RH WIND       PRES   REMARKS
DOWNTOWN L.A.  SUNNY     63  45  51 VRB6      29.88F
6HR MIN TEMP:  60; 6HR MAX TEMP:  67;

L.A. AIRPORT   MOSUNNY   60  46  59 W17       29.90F
6HR MIN TEMP:  59; 6HR MAX TEMP:  63;

SAN DIEGO      PTSUNNY   63  43  48 NW8       29.90S
6HR MIN TEMP:  61; 6HR MAX TEMP:  65;

BURBANK        MOSUNNY   62  41  46 S9        29.87S
6HR MIN TEMP:  55; 6HR MAX TEMP:  65;

ONTARIO        MOSUNNY   63  35  35 SW10      29.86F
6HR MIN TEMP:  54; 6HR MAX TEMP:  64;

RIVERSIDE      SUNNY     65  35  33 VRB6      29.85F
6HR MIN TEMP:  56; 6HR MAX TEMP:  66;

PALM SPRINGS   PTSUNNY   67  31  26 CALM      29.85F
6HR MIN TEMP:  60; 6HR MAX TEMP:  69;

EL CENTRO NAS  MOSUNNY   67  32  27 CALM      29.85F
6HR MIN TEMP:  59; 6HR MAX TEMP:  68;

IMPERIAL       SUNNY     66  34  30 CALM      29.84F
6HR MIN TEMP:  59; 6HR MAX TEMP:  67;

BLYTHE         SUNNY     63  42  46 CALM      29.85F
6HR MIN TEMP:  56; 6HR MAX TEMP:  65;

$$

NVZ020-UTZ003-040100-
SOUTHERN NEVADA-UTAH

CITY           SKY/WX    TMP DP  RH WIND       PRES   REMARKS
LAS VEGAS      NOT AVBL
SALT LAKE CITY FLURRIES  36  24  62 N12       29.91S WCI  28
6HR MIN TEMP:  31; 6HR MAX TEMP:  38; 6HR PCP:  0.01;

$$

NMZ009-TXZ055-040100-
NEW MEXICO-WEST TEXAS

CITY           SKY/WX    TMP DP  RH WIND       PRES   REMARKS
ALBUQUERQUE    MOSUNNY   56  27  32 NW9       29.74F
6HR MIN TEMP:  45; 6HR MAX TEMP:  56;

EL PASO        PTSUNNY   60  43  53 NW8       29.83S
6HR MIN TEMP:  53; 6HR MAX TEMP:  61; 6HR PCP: TRACE;

$$


........................KEY........................
SKY/WX - SKY CONDITION/WEATHER
TMP    - TEMPERATURE IN FAHRENHEIT
DP     - DEW POINT IN FAHRENHEIT
RH     - RELATIVE HUMIDITY IN PERCENT
WIND   - DIRECTION AND SPEED IN MILES PER HOUR (MPH)
VRB    - VARIABLE WIND DIRECTION
PRES   - MEAN SEA LEVEL PRESSURE IN INCHES OF MERCURY
         F - FALLING PRESSURE   R - RISING PRESSURE
         S - STEADY PRESSURE
VSB    - VISIBILITY IN MILES
HX     - HEAT INDEX IN FAHRENHEIT
WCI    - WIND CHILL INDEX IN FAHRENHEIT
TC     - TEMPERATURE IN CELSIUS WHICH IS ALSO KNOWN AS
         TEMPERATURE IN CENTIGRADE
AFB    - AIR FORCE BASE
         LUKE AFB IS LUKE AIR FORCE BASE
         DAVIS-MONTHAN IS DAVIS-MONTHAN AIR FORCE BASE
NAS    - NAVAL AIR STATION
         EL CENTRO NAS IS EL CENTRO NAVAL AIR STATION
N/A    - NOT AVAILABLE



USA.gov is the U.S. government's official web portal to all federal, state and local government web resources and services.